Location: Austin
(30.3000°N, 97.7500°W)
Time: 11:31:33
(UTC-05:00)

Cosmos 676 Rocket - Pass Details

Date: 26 May 2023
Orbit: 752 x 784 km, 74.0° (Epoch: 30 May)

Event Time Altitude Azimuth Distance (km) Brightness Sun altitude
Exits shadow 22:29:50 21° 204° (SSW) 1,658 5.5 -23.0°
Maximum altitude 22:33:20 73° 286° (WNW) 808 4.1 -23.5°
Drops below altitude 10° 22:38:37 10° 12° (NNE) 2,330 6.9 -24.3°
Sets 22:41:02 0° 14° (NNE) 3,265 7.7 -24.7°
